Total_Precipitation_Accumulation
0.62 0.16 0.22 0.31 0.18 0.17 0.10 0.05 0.03 0.06 0.09 0.05 0.04 0.04 0.01 0.01 0.03 0.03 0.02 0.04 0.03 0.09 0.06 0.03 0.04 0.10 0.17 0.13 0.20 0.17 0.18 0.17 0.25 0.75 0.87 0.76 0.61 0.40 0.43 0.72 0.83 1.14 1.51
0.85 0.48 0.60 0.36 0.16 0.18 0.19 0.11 0.06 0.08 0.08 0.04 0.03 0.02 0.01 0.01 0.02 0.02 0.02 0.03 0.06 0.20 0.10 0.05 0.06 0.09 0.14 0.12 0.11 0.09 0.05 0.09 0.15 0.53 0.74 0.84 0.84 0.65 0.75 0.85 1.06 1.47 1.43
1.72 1.04 0.90 0.98 0.35 0.27 0.25 0.18 0.10 0.05 0.04 0.04 0.04 0.03 0.04 0.04 0.02 0.04 0.04 0.05 0.11 0.34 0.31 0.12 0.11 0.19 0.12 0.08 0.07 0.06 0.05 0.03 0.12 0.39 0.78 0.68 0.55 1.10 0.95 0.91 0.85 1.27 1.27
0.54 0.63 0.80 1.24 1.03 0.85 0.67 0.28 0.18 0.13 0.08 0.03 0.05 0.09 0.11 0.07 0.09 0.11 0.06 0.07 0.23 0.39 0.40 0.39 0.35 0.24 0.11 0.05 0.04 0.05 0.03 0.04 0.10 0.24 0.78 1.63 1.11 1.36 1.18 0.85 0.95 1.14 1.36
0.58 0.39 0.82 1.25 1.38 0.87 1.03 0.73 0.51 0.47 0.22 0.11 0.16 0.09 0.11 0.16 0.29 0.33 0.26 0.25 0.44 0.52 0.49 0.53 0.49 0.35 0.11 0.01 0.00 0.01 0.03 0.08 0.08 0.20 1.10 2.63 1.84 1.59 1.20 0.99 0.94 0.91 1.23
1.27 1.01 1.68 2.11 1.54 1.07 1.00 1.23 2.12 1.92 1.31 1.01 0.66 0.44 0.32 0.53 0.65 0.58 0.48 0.44 0.50 0.60 0.47 0.43 0.47 0.23 0.02 0.00 0.00 0.00 0.03 0.06 0.24 0.36 0.64 1.80 1.87 2.19 2.19 1.37 1.13 1.09 1.11
2.86 2.39 2.34 3.06 2.34 1.68 1.21 1.45 2.07 3.42 3.92 3.38 2.34 1.40 1.63 1.84 1.49 1.16 0.72 0.56 0.51 0.54 0.56 0.48 0.33 0.21 0.08 0.03 0.11 0.09 0.04 0.18 0.42 0.79 0.85 1.71 3.24 2.52 2.69 2.08 1.43 1.27 1.08
5.89 6.62 4.71 4.83 5.24 4.02 2.65 1.37 1.60 2.19 3.44 3.43 3.54 3.38 3.25 2.61 1.68 1.29 0.79 0.59 0.54 0.52 0.45 0.48 0.32 0.29 0.17 0.27 0.25 0.24 0.22 0.22 0.34 0.82 1.11 1.12 2.46 3.15 2.80 2.11 1.48 1.11 1.00
6.90 10.16 10.57 7.27 6.42 5.67 6.33 4.11 1.79 1.64 1.82 2.19 2.31 2.33 2.63 2.99 2.05 1.53 0.97 0.74 0.73 0.72 0.38 0.34 0.29 0.40 0.58 0.54 0.23 0.26 0.29 0.32 0.39 1.06 1.41 0.81 0.93 2.21 5.16 3.59 1.52 0.88 0.71
7.55 6.68 6.96 5.70 4.95 4.65 4.82 5.36 3.72 2.50 2.16 1.89 1.86 1.82 1.74 2.23 2.13 1.50 1.02 0.76 0.83 0.72 0.50 0.40 0.50 0.63 0.58 0.55 0.55 0.47 0.36 0.28 0.15 0.29 0.83 0.74 0.82 0.71 1.17 1.36 1.00 0.70 0.64
3.58 4.02 3.69 2.64 1.87 2.18 2.33 2.73 3.35 3.29 2.69 2.72 2.92 2.12 1.68 1.56 2.09 1.76 1.30 0.99 1.05 0.89 0.70 0.56 0.65 0.66 0.54 0.45 0.32 0.29 0.24 0.24 0.17 0.25 0.46 0.54 0.89 0.89 1.02 0.74 0.61 0.53 0.48
2.44 2.01 1.44 1.00 0.65 0.65 0.78 0.89 1.42 2.17 2.54 2.26 3.59 2.51 2.16 1.33 1.56 1.49 1.67 1.46 1.45 1.30 0.78 0.81 0.65 0.50 0.38 0.27 0.18 0.13 0.10 0.22 0.24 0.32 0.73 0.61 0.78 1.07 0.78 0.57 0.55 0.62 0.59
2.21 1.20 1.03 0.84 0.61 0.65 0.52 0.58 0.72 1.30 2.14 2.45 2.69 2.48 2.51 1.61 1.88 1.66 1.89 1.41 1.25 1.82 1.12 1.05 0.75 0.61 0.44 0.40 0.34 0.35 0.35 0.37 0.51 0.47 0.49 0.40 0.68 1.21 0.98 0.54 0.42 0.52 0.62
1.27 0.62 0.46 0.64 0.70 1.00 0.85 0.64 0.69 1.16 2.01 2.17 1.78 1.58 2.06 1.56 1.80 1.75 1.63 1.44 1.21 1.81 1.37 1.24 0.90 0.83 0.87 0.91 0.83 0.85 0.82 0.56 0.47 0.48 0.70 0.71 0.83 1.16 1.11 0.80 0.56 0.54 0.58
0.80 0.65 0.50 0.37 0.58 0.64 0.87 1.00 0.96 1.09 1.36 1.75 1.61 0.94 1.62 1.72 1.59 2.05 2.14 1.91 1.48 2.02 1.32 0.92 0.84 0.75 0.79 0.90 0.84 0.80 0.72 0.85 0.59 0.68 1.05 1.53 1.25 1.14 1.34 1.28 1.23 1.23 0.82
0.44 0.57 0.65 0.59 0.55 0.56 0.69 0.73 0.94 1.26 1.75 1.58 1.60 1.15 1.19 1.52 1.94 2.59 2.49 2.26 1.63 1.66 1.65 1.34 0.87 0.83 0.75 0.96 0.87 0.83 0.71 0.82 0.63 0.59 0.60 1.13 1.09 0.99 1.10 1.51 1.75 1.65 1.08
0.12 0.28 0.69 1.11 0.58 0.46 0.51 0.63 0.64 0.77 1.15 1.27 1.40 1.22 1.03 1.18 1.50 2.02 2.21 2.05 1.84 1.75 1.48 1.74 1.51 1.26 1.22 1.32 1.03 0.98 0.73 0.75 0.54 0.49 0.45 0.49 0.64 0.76 0.85 1.17 1.32 1.29 1.18
0.04 0.14 0.70 1.32 0.98 0.62 0.52 0.76 0.74 0.93 1.15 1.37 1.64 1.57 1.15 1.17 1.59 1.89 1.96 2.16 2.43 2.71 2.43 2.16 2.24 1.77 1.40 1.49 1.42 1.00 0.83 0.72 0.65 0.33 0.30 0.45 0.50 0.54 0.61 0.66 0.90 1.09 1.09
0.05 0.19 0.53 0.86 1.10 1.06 1.03 1.14 1.08 1.10 1.33 1.49 1.66 1.90 1.89 2.12 2.37 2.31 2.34 2.70 3.07 3.07 2.80 2.40 1.94 1.81 1.45 1.45 1.61 1.34 1.08 0.78 0.80 0.68 0.35 0.31 0.44 0.48 0.49 0.51 0.49 0.60 0.78
0.09 0.33 0.59 0.76 1.25 1.74 1.20 0.85 1.07 1.39 1.30 1.31 1.34 1.66 1.79 1.72 2.13 2.46 2.55 2.24 2.38 2.58 2.58 2.50 2.48 2.30 1.94 1.73 1.83 1.85 1.47 1.29 1.03 0.95 0.66 0.43 0.42 0.48 0.47 0.55 0.50 0.47 0.63
0.18 0.43 0.65 1.02 1.03 0.77 0.67 0.70 0.93 1.09 1.25 1.37 1.22 1.43 1.88 1.91 2.04 2.62 2.96 3.13 2.61 2.07 2.30 2.42 2.55 2.42 2.24 1.99 2.39 2.41 1.88 1.36 1.17 0.93 0.79 0.63 0.64 0.53 0.65 0.58 0.66 0.58 0.70
0.44 0.45 0.34 0.23 0.33 0.41 0.51 0.66 0.84 0.96 1.22 1.31 1.47 1.40 1.69 1.80 2.11 2.18 2.56 2.88 2.76 2.24 1.83 1.70 2.11 2.72 2.95 2.74 2.76 2.76 2.62 2.33 1.72 1.34 0.95 0.71 0.56 0.56 0.70 0.87 0.70 0.70 0.81
0.06 0.07 0.14 0.25 0.45 0.42 0.44 0.61 0.83 1.20 1.47 1.39 1.42 1.24 1.29 1.61 1.97 2.29 2.55 2.56 2.38 2.18 2.04 2.14 2.46 2.88 2.80 2.90 2.75 3.01 2.83 2.25 1.72 1.51 1.28 0.92 0.95 0.98 0.83 0.95 1.13 0.94 0.80
0.04 0.14 0.22 0.27 0.32 0.27 0.40 0.63 0.65 0.71 0.78 0.66 0.63 0.74 0.80 1.24 1.90 2.59 3.06 2.94 3.15 3.44 3.02 2.85 2.63 2.99 3.60 3.97 4.43 3.84 3.04 2.67 2.36 2.32 2.12 1.99 1.87 1.73 1.68 2.04 2.12 2.22 2.20
0.07 0.12 0.16 0.30 0.36 0.29 0.40 0.75 0.86 0.84 0.64 0.56 0.56 0.70 0.82 1.05 1.47 2.02 2.68 3.21 3.51 3.59 3.47 3.39 3.24 3.33 3.41 3.31 3.54 3.70 4.05 3.74 3.12 2.53 2.28 2.25 2.35 2.10 1.65 1.35 1.70 2.03 1.93
0.16 0.17 0.17 0.19 0.32 0.34 0.35 0.61 1.04 1.47 1.73 1.80 1.48 1.07 0.85 1.03 1.31 1.72 2.09 2.44 3.16 3.47 3.42 3.19 3.32 3.24 2.95 3.01 3.38 3.43 2.97 2.73 2.69 2.62 2.36 2.02 2.13 2.05 2.03 1.82 1.55 1.50 1.52